When you browse on this site, cookies collect data to enhance your experience and personalize the content and advertising you see.
Visit our Privacy Policy to learn more. By continuing to use the site, you agree to this use of cookies and data.
  • în România
  • Lista ţărilor
  • Pe 7 zile
  • Temperatura apei
  • Meteo pe hartă
  • Widget-uri
  • user-avatar
    Intrare

    Meteo pe oră la Catió

    Astăzi, 7 Decembrie, Sâmbătă

    Timp Temperatura Precipitaţii Vânt Presiune Umiditate
    00:00 +24°C° 0 mm 3 m/s 757 mmHg 62%
    01:00 +22°C° 0 mm 3 m/s 757 mmHg 55%
    02:00 +22°C° 0 mm 3 m/s 757 mmHg 49%
    03:00 +21°C° 0 mm 4 m/s 757 mmHg 45%
    04:00 +21°C° 0 mm 4 m/s 757 mmHg 41%
    05:00 +20°C° 0 mm 4 m/s 757 mmHg 36%
    06:00 +21°C° 0 mm 4 m/s 758 mmHg 33%
    07:00 +23°C° 0 mm 4 m/s 758 mmHg 31%
    08:00 +25°C° 0 mm 5 m/s 758 mmHg 29%
    09:00 +28°C° 0 mm 4 m/s 758 mmHg 26%
    10:00 +32°C° 0 mm 4 m/s 758 mmHg 23%
    11:00 +35°C° 0 mm 4 m/s 758 mmHg 20%
    12:00 +36°C° 0 mm 3 m/s 757 mmHg 19%
    13:00 +37°C° 0 mm 3 m/s 756 mmHg 19%
    14:00 +38°C° 0 mm 3 m/s 756 mmHg 18%
    15:00 +37°C° 0 mm 3 m/s 756 mmHg 21%
    16:00 +36°C° 0 mm 4 m/s 756 mmHg 25%
    17:00 +34°C° 0 mm 4 m/s 755 mmHg 28%
    18:00 +32°C° 0 mm 4 m/s 756 mmHg 38%
    19:00 +29°C° 0 mm 4 m/s 757 mmHg 48%
    20:00 +26°C° 0 mm 4 m/s 758 mmHg 58%
    21:00 +26°C° 0 mm 4 m/s 757 mmHg 58%
    22:00 +26°C° 0 mm 4 m/s 757 mmHg 59%
    23:00 +26°C° 0 mm 4 m/s 757 mmHg 59%

    Mâine, 8 Decembrie, Duminică

    Timp Temperatura Precipitaţii Vânt Presiune Umiditate
    00:00 +25°C° 0 mm 4 m/s 757 mmHg 50%
    01:00 +25°C° 0 mm 4 m/s 757 mmHg 40%
    02:00 +23°C° 0 mm 4 m/s 757 mmHg 31%
    03:00 +23°C° 0 mm 4 m/s 757 mmHg 30%
    04:00 +22°C° 0 mm 4 m/s 757 mmHg 29%
    05:00 +21°C° 0 mm 4 m/s 757 mmHg 28%
    06:00 +23°C° 0 mm 4 m/s 757 mmHg 27%
    07:00 +25°C° 0 mm 4 m/s 757 mmHg 26%
    08:00 +26°C° 0 mm 4 m/s 758 mmHg 25%
    09:00 +29°C° 0 mm 4 m/s 758 mmHg 23%
    10:00 +33°C° 0 mm 4 m/s 757 mmHg 21%
    11:00 +35°C° 0 mm 4 m/s 757 mmHg 20%
    12:00 +36°C° 0 mm 4 m/s 756 mmHg 19%
    13:00 +38°C° 0 mm 4 m/s 756 mmHg 18%
    14:00 +40°C° 0 mm 4 m/s 755 mmHg 17%
    15:00 +38°C° 0 mm 3 m/s 755 mmHg 19%
    16:00 +37°C° 0 mm 3 m/s 755 mmHg 22%
    17:00 +35°C° 0 mm 3 m/s 755 mmHg 24%
    18:00 +33°C° 0 mm 3 m/s 755 mmHg 32%
    19:00 +30°C° 0 mm 4 m/s 756 mmHg 39%
    20:00 +28°C° 0 mm 4 m/s 756 mmHg 47%
    21:00 +28°C° 0 mm 4 m/s 756 mmHg 47%
    22:00 +28°C° 0 mm 4 m/s 756 mmHg 47%
    23:00 +27°C° 0 mm 3 m/s 756 mmHg 47%

    Poimâine, 9 Decembrie, Luni

    Timp Temperatura Precipitaţii Vânt Presiune Umiditate
    00:00 +27°C° 0 mm 3 m/s 756 mmHg 42%
    01:00 +26°C° 0 mm 3 m/s 756 mmHg 38%
    02:00 +25°C° 0 mm 3 m/s 756 mmHg 33%
    03:00 +24°C° 0 mm 3 m/s 756 mmHg 33%
    04:00 +24°C° 0 mm 3 m/s 756 mmHg 32%
    05:00 +22°C° 0 mm 3 m/s 756 mmHg 31%
    06:00 +23°C° 0 mm 4 m/s 756 mmHg 29%
    07:00 +26°C° 0 mm 4 m/s 757 mmHg 27%
    08:00 +27°C° 0 mm 4 m/s 757 mmHg 25%
    09:00 +30°C° 0 mm 4 m/s 757 mmHg 21%
    10:00 +35°C° 0 mm 3 m/s 757 mmHg 18%
    11:00 +38°C° 0 mm 3 m/s 757 mmHg 15%
    12:00 +39°C° 0 mm 3 m/s 756 mmHg 14%
    13:00 +40°C° 0 mm 3 m/s 755 mmHg 13%
    14:00 +42°C° 0 mm 3 m/s 755 mmHg 12%
    15:00 +38°C° 0 mm 3 m/s 755 mmHg 20%
    16:00 +35°C° 0 mm 3 m/s 755 mmHg 28%
    17:00 +32°C° 0 mm 4 m/s 755 mmHg 36%
    18:00 +30°C° 0 mm 3 m/s 755 mmHg 48%
    19:00 +28°C° 0 mm 3 m/s 756 mmHg 60%
    20:00 +26°C° 0 mm 3 m/s 756 mmHg 72%
    21:00 +26°C° 0 mm 3 m/s 757 mmHg 75%
    22:00 +26°C° 0 mm 3 m/s 757 mmHg 78%
    23:00 +26°C° 0 mm 3 m/s 757 mmHg 82%

    10 Decembrie, Marţi

    Timp Temperatura Precipitaţii Vânt Presiune Umiditate
    00:00 +26°C° 0 mm 2 m/s 757 mmHg 82%
    01:00 +26°C° 0 mm 2 m/s 757 mmHg 82%
    02:00 +25°C° 0 mm 1 m/s 757 mmHg 82%
    03:00 +25°C° 0 mm 1 m/s 756 mmHg 81%
    04:00 +25°C° 0 mm 1 m/s 756 mmHg 80%
    05:00 +25°C° 0 mm 1 m/s 756 mmHg 79%
    06:00 +26°C° 0 mm 1 m/s 757 mmHg 73%
    07:00 +28°C° 0 mm 1 m/s 757 mmHg 67%
    08:00 +29°C° 0 mm 1 m/s 757 mmHg 61%
    09:00 +31°C° 0 mm 2 m/s 757 mmHg 54%
    10:00 +34°C° 0 mm 2 m/s 757 mmHg 47%
    11:00 +36°C° 0 mm 3 m/s 757 mmHg 40%
    12:00 +36°C° 0 mm 3 m/s 756 mmHg 40%
    13:00 +36°C° 0 mm 4 m/s 756 mmHg 41%
    14:00 +36°C° 0 mm 4 m/s 755 mmHg 41%
    15:00 +35°C° 0 mm 4 m/s 755 mmHg 48%
    16:00 +33°C° 0 mm 4 m/s 755 mmHg 54%
    17:00 +30°C° 0 mm 4 m/s 755 mmHg 61%
    18:00 +29°C° 0 mm 4 m/s 756 mmHg 65%
    19:00 +28°C° 0 mm 4 m/s 756 mmHg 70%
    20:00 +27°C° 0 mm 3 m/s 757 mmHg 75%
    21:00 +27°C° 0 mm 3 m/s 757 mmHg 77%
    22:00 +27°C° 0 mm 3 m/s 757 mmHg 78%
    23:00 +26°C° 0 mm 3 m/s 757 mmHg 80%

    11 Decembrie, Miercuri

    Timp Temperatura Precipitaţii Vânt Presiune Umiditate
    00:00 +26°C° 0 mm 2 m/s 757 mmHg 82%
    01:00 +26°C° 0 mm 1 m/s 757 mmHg 83%
    02:00 +26°C° 0 mm 1 m/s 756 mmHg 85%
    03:00 +25°C° 0 mm 1 m/s 756 mmHg 85%
    04:00 +25°C° 0 mm 1 m/s 756 mmHg 86%
    05:00 +25°C° 0 mm 2 m/s 756 mmHg 87%
    06:00 +26°C° 0 mm 1 m/s 757 mmHg 81%
    07:00 +28°C° 0 mm 1 m/s 757 mmHg 75%
    08:00 +29°C° 0 mm 1 m/s 757 mmHg 69%
    09:00 +31°C° 0 mm 1 m/s 757 mmHg 58%
    10:00 +34°C° 0 mm 1 m/s 757 mmHg 47%
    11:00 +36°C° 0 mm 1 m/s 757 mmHg 36%
    12:00 +37°C° 0 mm 2 m/s 756 mmHg 36%
    13:00 +37°C° 0 mm 3 m/s 755 mmHg 37%
    14:00 +37°C° 0 mm 4 m/s 754 mmHg 37%
    15:00 +35°C° 0 mm 4 m/s 754 mmHg 45%
    16:00 +33°C° 0 mm 4 m/s 754 mmHg 53%
    17:00 +30°C° 0 mm 4 m/s 754 mmHg 62%
    18:00 +29°C° 0 mm 4 m/s 755 mmHg 69%
    19:00 +28°C° 0 mm 4 m/s 756 mmHg 77%
    20:00 +27°C° 0 mm 4 m/s 756 mmHg 84%
    21:00 +27°C° 0 mm 4 m/s 756 mmHg 86%
    22:00 +26°C° 0 mm 3 m/s 757 mmHg 88%
    23:00 +26°C° 0 mm 3 m/s 757 mmHg 90%

    12 Decembrie, Joi

    Timp Temperatura Precipitaţii Vânt Presiune Umiditate
    00:00 +26°C° 0 mm 2 m/s 756 mmHg 91%
    01:00 +25°C° 0 mm 1 m/s 756 mmHg 91%
    02:00 +25°C° 0 mm 1 m/s 756 mmHg 92%
    03:00 +25°C° 0 mm 1 m/s 756 mmHg 92%
    04:00 +24°C° 0 mm 1 m/s 756 mmHg 93%
    05:00 +24°C° 0 mm 1 m/s 756 mmHg 93%
    06:00 +25°C° 0 mm 1 m/s 756 mmHg 86%
    07:00 +27°C° 0 mm 1 m/s 757 mmHg 79%
    08:00 +28°C° 0 mm 1 m/s 757 mmHg 72%
    09:00 +31°C° 0 mm 1 m/s 757 mmHg 58%
    10:00 +33°C° 0 mm 1 m/s 757 mmHg 44%
    11:00 +36°C° 0 mm 1 m/s 757 mmHg 30%
    12:00 +38°C° 0 mm 2 m/s 756 mmHg 29%
    13:00 +38°C° 0 mm 2 m/s 756 mmHg 27%
    14:00 +39°C° 0 mm 3 m/s 755 mmHg 25%
    15:00 +36°C° 0 mm 3 m/s 755 mmHg 35%
    16:00 +34°C° 0 mm 4 m/s 755 mmHg 45%
    17:00 +30°C° 0 mm 4 m/s 755 mmHg 54%
    18:00 +29°C° 0 mm 4 m/s 755 mmHg 63%
    19:00 +28°C° 0 mm 4 m/s 756 mmHg 72%
    20:00 +26°C° 0 mm 3 m/s 757 mmHg 80%
    21:00 +26°C° 0 mm 3 m/s 757 mmHg 83%
    22:00 +25°C° 0 mm 3 m/s 757 mmHg 86%
    23:00 +25°C° 0 mm 3 m/s 757 mmHg 89%
    Arată mai mult